Flag for Norfolk Island Weather past 2 weeks in Kingston, Norfolk Island

Now
59 °F

Passing clouds.


Feels Like: 58 °F
Forecast: 58 / 64 °F
Wind: 7 mph from South

Location: Norfolk Island Airport

Current Time: Sep 5, 2015 at 10:25:20 PM

Latest Report: Sep 5, 2015 at 9:30 PM


Visibility: N/A

Pressure: 30.04 "Hg

Humidity: 72%

Dew point: 50 °F

Location of KingstonLocation

Historic Weather in Kingston — Graph

°F

Kingston temperature yesterday

Maximum temperature yesterday: 68 °F (at 8:30 AM)
Minimum temperature yesterday: 59 °F (at 11:30 AM)
Average temperature yesterday: 64 °F

Past Weeks' High & Low Weather Summary

 TemperatureHumidityPressure
High70 °F (Aug 26, 12:30 PM)100% (Aug 27, 5:30 AM)30.33 "Hg (Aug 27, 5:30 AM)
Low54 °F (Aug 24, 12:30 AM)45% (Aug 24, 1:30 PM)29.74 "Hg (Aug 31, 3:00 PM)
Average62 °F70%30.13 "Hg
* Reported Aug 21 8:30 PM — Sep 5 9:00 PM, Kingston, Weather by CustomWeather, © 2015

Note: Actual official high and low records may vary slightly from our data, if they occured in-between our weather recording intervals... More about our weather records

Advertising

Kingston weather history for previous 24 hours

 ConditionsComfort  
Time TempWeatherWind HumidityBarometerVisibility
9:00 PM
Sat, Sep 5
59 °FPassing clouds.9 mph72%30.04 "HgN/A
8:30 PM61 °FPassing clouds.9 mph68%30.01 "HgN/A
8:00 PM61 °FPassing clouds.7 mph63%30.01 "HgN/A
7:30 PM61 °FPassing clouds.10 mph68%30.01 "HgN/A
7:00 PM61 °FPassing clouds.12 mph68%30.01 "HgN/A
6:30 PM61 °FPassing clouds.8 mph59%29.98 "HgN/A
6:00 PM61 °FPassing clouds.9 mph55%29.98 "HgN/A
5:30 PM61 °FPassing clouds.12 mph52%29.98 "HgN/A
5:00 PM63 °FScattered clouds.10 mph59%29.95 "HgN/A
4:30 PM63 °FScattered clouds.14 mph59%29.95 "HgN/A
3:30 PM63 °FMostly cloudy.14 mph59%29.95 "HgN/A
3:00 PM63 °FScattered clouds.13 mph68%29.92 "HgN/A
2:30 PM64 °FScattered showers. Scattered clouds.16 mph68%29.92 "HgN/A
2:00 PM64 °FScattered showers. Scattered clouds.16 mph68%29.92 "HgN/A
1:35 PM63 °FSprinkles. Scattered clouds.17 mph68%29.95 "HgN/A
1:30 PM63 °FSprinkles. Scattered clouds.18 mph68%29.95 "HgN/A
1:25 PM64 °FScattered showers. Scattered clouds.17 mph64%29.95 "HgN/A
12:30 PM63 °FPassing clouds.18 mph68%29.95 "HgN/A
12:00 PM63 °FSprinkles. Scattered clouds.17 mph68%29.95 "HgN/A
11:30 AM63 °FScattered showers. Passing clouds.20 mph73%29.95 "HgN/A
11:00 AM64 °FPassing clouds.20 mph60%29.98 "HgN/A
10:30 AM64 °FPassing clouds.16 mph64%29.98 "HgN/A
10:00 AM64 °FPassing clouds.20 mph64%29.98 "HgN/A
9:30 AM64 °FScattered clouds.16 mph64%29.98 "HgN/A
8:30 AM63 °FScattered clouds.18 mph68%29.95 "HgN/A
7:30 AM61 °FScattered clouds.17 mph72%29.92 "HgN/A
7:00 AM61 °FScattered clouds.22 mph72%29.89 "HgN/A
6:30 AM61 °FScattered clouds.22 mph72%29.89 "HgN/A
6:00 AM61 °FScattered clouds.22 mph77%29.86 "HgN/A
5:30 AM61 °FPartly cloudy.21 mph72%29.86 "HgN/A
4:31 AM61 °FPassing clouds.20 mph72%29.83 "HgN/A
4:00 AM61 °FPartly cloudy.21 mph77%29.80 "HgN/A
3:30 AM61 °FPassing clouds.22 mph77%29.80 "HgN/A
2:30 AM63 °FPartly cloudy.24 mph73%29.80 "HgN/A
1:30 AM63 °FOvercast.20 mph83%29.77 "HgN/A
1:00 AM61 °FPartly cloudy.23 mph88%29.77 "Hg4 mi
12:30 AM64 °FPassing clouds.25 mph68%29.77 "HgN/A
11:30 PM
Fri, Sep 4
64 °FPassing clouds.23 mph78%29.77 "HgN/A
11:00 PM64 °FPassing clouds.26 mph78%29.77 "HgN/A
10:30 PM63 °FPassing clouds.26 mph77%29.77 "HgN/A
Weather by CustomWeather, © 2015

See weather overviewHow to use our weather pages